This demonstration page uses our WeatherBlox Daily Observations layout. Learn more.

Left ArrowRight Arrow

Hourly Observations for November 22, 2019

Temp ( °F °C ) Dew Point ( °F °C ) Humidity (%) Winds ( mph kmh ) Pressure ( in mb ) Visibility ( mi km ) Precip ( " mm )
12:53 am 00:53 Mostly Cloudy 29 -1.7 21 -6.1 72 72 NNE 12 19 30.30 1026 10 16 0.00 0.00
1:53 am 01:53 Cloudy 29 -1.7 20 -6.7 69 69 NNE 7 11 30.30 1026 10 16 0.00 0.00
2:53 am 02:53 Mostly Cloudy 28 -2.2 20 -6.7 72 72 NNE 8 13 30.31 1027 10 16 0.00 0.00
3:53 am 03:53 Clear 27 -2.8 20 -6.7 75 75 N 9 15 30.29 1026 10 16 0.00 0.00
4:53 am 04:53 Clear 27 -2.8 20 -6.7 75 75 N 12 19 30.29 1026 10 16 0.00 0.00
5:53 am 05:53 Clear 25 -3.9 19 -7.2 78 78 N 9 15 30.27 1025 10 16 0.00 0.00
6:53 am 06:53 Clear 23 -5 18 -7.8 81 81 NW 5 7 30.30 1026 10 16 0.00 0.00
7:53 am 07:53 Sunny 23 -5 N/A N/A W 3 6 30.33 1027 10 16 0.00 0.00
8:53 am 08:53 Sunny 25 -4 N/A N/A Calm 30.34 1027 10 16 0.00 0.00
9:53 am 09:53 Sunny 25 -4 N/A N/A N 3 6 30.32 1027 10 16 0.00 0.00
10:53 am 10:53 Mostly Sunny 30 -1.1 17 -8.3 58 58 Calm 30.30 1026 10 16 0.00 0.00
11:53 am 11:53 Cloudy 30 -1.1 18 -7.8 61 61 VRB 3 6 30.27 1025 10 16 0.00 0.00
12:53 pm 12:53 Mostly Cloudy 31 -0.6 18 -7.8 59 59 SSW 7 11 30.24 1024 10 16 0.00 0.00
1:53 pm 13:53 Cloudy 31 -0.6 20 -6.7 64 64 SW 5 7 30.21 1023 10 16 0.00 0.00
2:53 pm 14:53 Cloudy 30 -1.1 22 -5.6 72 72 WSW 9 15 30.19 1022 10 16 0.00 0.00
3:53 pm 15:53 Cloudy 30 -1.1 23 -5 75 75 W 7 11 30.18 1022 10 16 0.00 0.00
4:53 pm 16:53 Cloudy with Light Snow 31 -0.6 23 -5 72 72 SW 5 7 30.17 1022 2 3 0.00 0.00
5:05 pm 17:05 Cloudy with Light Snow 30 -1.1 24 -4.4 79 79 WSW 7 11 30.19 1022 2 3 0.00 0.00
5:17 pm 17:17 Cloudy with Light Snow 30 -1.1 25 -3.9 82 82 WSW 5 7 30.19 1022 2 3 0.00 0.00
5:28 pm 17:28 Cloudy with Light Snow 30 -1.1 26 -3.3 85 85 SSW 5 7 30.20 1023 5 8 0.00 0.00
5:53 pm 17:53 Cloudy 30 -1.1 26 -3.3 85 85 SSW 3 6 30.17 1022 9 14 0.00 0.00
6:53 pm 18:53 Cloudy 30 -1 N/A N/A S 3 6 30.16 1022 9 14 0.00 0.00
7:53 pm 19:53 Cloudy 30 -1 N/A N/A WSW 3 6 30.15 1021 10 16 0.00 0.00
8:53 pm 20:53 Cloudy 30 -1 N/A N/A SW 3 6 30.13 1020 10 16 0.00 0.00
9:53 pm 21:53 Cloudy 30 -1 N/A N/A SW 3 6 30.12 1020 10 16 0.00 0.00
10:53 pm 22:53 Cloudy 30 -1 N/A N/A SW 3 6 30.08 1019 10 16 0.00 0.00
11:53 pm 23:53 Cloudy 30 -1 N/A N/A SW 5 7 30.07 1018 10 16 0.00 0.00

Powered by AerisWeather